Theta_e
323 324 324 325 326 327 327 328 328 328 328 328 328 328 327 327 327 327 327 327 326 326 326 325 326 326 325 325 325 325 324 324 324 324 323 323 323 323 323 323 323 323 323 323 323 323 322 322 322 322 322 322 322 322 322 321 321 320 321 321 320 320 320 320 320 320 320 320 319 319 319 319 319 319 319 320 319 319 320 320 320 320 320 320 320
323 323 324 324 325 326 326 327 328 328 328 328 328 328 328 328 327 327 327 327 326 326 326 326 326 325 325 325 325 325 325 324 324 324 323 323 323 323 323 323 323 323 323 323 322 323 322 322 322 322 322 322 322 322 322 322 322 321 321 321 321 321 321 320 319 319 319 319 319 319 319 319 319 319 320 320 320 320 320 320 320 320 320 319 319
323 323 323 324 324 325 326 326 327 327 328 328 328 328 328 328 328 327 327 327 326 326 326 326 326 325 325 325 325 325 325 324 324 324 323 324 323 323 323 323 323 322 322 322 322 322 322 322 322 322 322 322 322 322 322 322 322 322 322 321 321 321 321 320 320 319 318 318 318 318 318 319 319 319 320 320 320 320 320 320 320 319 319 319 319
323 322 322 322 323 323 325 326 326 327 327 328 328 328 328 328 328 327 327 327 326 326 326 326 326 325 325 325 325 325 325 324 324 324 323 324 323 323 323 323 323 322 322 322 322 322 322 322 322 322 322 322 322 322 322 322 322 322 322 321 321 321 320 320 319 319 318 318 318 318 318 318 319 319 319 320 320 320 319 319 320 319 319 319 319
321 321 321 321 321 321 322 324 325 326 327 327 328 328 328 328 328 327 327 327 327 326 326 326 326 326 325 325 325 325 325 325 324 324 324 324 323 323 323 323 323 323 323 322 322 322 322 322 322 322 322 322 322 322 322 322 322 322 322 321 321 321 320 320 319 319 318 318 318 319 318 318 319 319 319 319 319 319 319 319 319 319 319 319 318
318 318 319 319 319 319 320 321 322 323 325 326 327 327 328 328 328 328 327 327 327 326 326 326 326 326 326 326 325 326 325 325 325 324 324 324 324 323 323 323 323 323 323 323 322 322 322 322 322 322 322 322 322 322 322 322 322 321 321 321 321 320 320 319 319 319 318 318 318 318 318 318 318 319 319 319 319 318 318 319 319 319 319 318 317
314 315 316 316 317 318 318 318 319 320 321 322 324 325 326 327 327 328 328 327 327 327 326 326 326 326 326 326 326 326 325 325 325 325 325 324 324 323 323 323 323 323 322 322 322 322 322 322 322 322 322 322 322 322 321 321 321 321 321 320 320 319 319 319 318 318 318 317 317 317 318 318 318 318 318 318 318 318 318 316 315 316 316 316 317
311 312 312 313 314 315 316 316 317 317 318 319 321 323 324 326 326 327 327 327 327 327 327 326 326 326 326 326 326 326 326 325 325 325 325 324 323 323 323 323 323 322 322 322 322 322 322 322 322 322 322 322 322 322 322 321 321 320 320 320 319 319 318 318 318 317 317 317 317 317 318 317 317 317 316 316 315 315 315 314 312 314 316 316 317
311 311 310 310 311 311 312 313 313 315 316 316 318 320 322 324 326 326 327 327 327 327 327 327 326 326 326 326 326 326 326 325 325 325 325 324 324 323 323 323 323 322 322 322 322 322 322 322 322 323 323 323 323 322 322 321 321 320 320 319 319 319 318 318 317 317 317 316 316 317 316 315 315 315 313 312 312 312 314 313 312 314 315 313 314
311 310 310 310 310 310 310 310 311 312 313 315 317 319 321 323 324 325 326 326 327 327 327 326 326 326 326 326 326 326 325 326 326 326 325 325 324 324 323 323 323 322 322 322 322 322 322 322 322 323 323 323 323 322 322 322 322 321 320 320 319 318 318 317 317 317 316 315 315 315 314 312 313 313 311 312 313 312 312 312 311 312 311 309 310
310 310 310 310 310 310 310 311 312 312 313 315 316 318 320 322 323 324 325 326 326 326 326 326 326 326 325 325 325 325 325 326 326 326 325 325 325 324 323 323 323 322 322 322 322 322 322 322 322 322 322 322 322 322 322 322 322 321 321 321 320 319 319 318 317 317 316 315 315 314 313 312 313 313 313 312 312 311 312 312 311 309 307 305 307
310 310 310 310 310 310 311 312 313 314 315 316 317 318 320 321 322 323 324 325 325 325 325 325 325 325 325 325 325 325 325 326 326 326 325 325 325 324 324 323 323 322 322 322 322 322 322 322 322 322 322 322 322 322 322 322 322 322 321 321 321 320 320 319 318 317 316 315 314 314 313 313 314 314 314 313 311 311 311 311 310 308 306 304 305
310 310 310 310 310 310 312 313 314 315 316 317 317 318 319 320 321 322 323 323 323 324 324 324 324 324 324 324 324 325 325 325 325 325 325 325 324 324 324 323 323 322 322 322 322 322 322 322 322 322 322 322 322 322 322 322 321 321 321 321 320 320 320 320 320 319 318 317 315 314 315 315 314 314 314 313 311 310 309 309 309 308 306 305 306
309 309 309 309 309 310 312 313 314 315 316 317 318 318 319 320 320 321 322 322 323 323 323 323 324 323 323 324 324 324 325 325 324 324 324 324 324 323 323 323 323 323 323 323 322 322 322 322 322 322 322 322 322 321 321 321 320 320 319 319 319 319 319 319 319 319 319 319 317 316 316 316 316 316 315 313 312 311 310 309 309 308 307 308 310
308 308 308 307 308 308 309 310 312 313 314 315 316 317 318 319 320 320 321 321 321 322 322 322 322 322 322 323 323 323 324 323 323 323 323 323 323 322 322 322 322 322 322 322 322 321 321 321 321 321 321 321 321 321 321 320 319 318 318 318 318 319 319 319 319 319 319 319 318 317 317 317 317 317 315 314 314 313 313 312 312 311 310 309 308
306 306 307 307 307 307 307 307 308 309 310 311 312 314 315 317 318 319 319 319 318 318 319 319 319 320 321 321 321 322 322 322 321 321 321 321 321 320 320 320 320 319 319 319 319 319 319 319 319 319 319 319 319 319 319 319 318 318 317 318 318 318 318 319 319 320 320 320 319 318 318 318 317 317 317 316 314 314 314 313 311 310 307 304 303
303 304 305 305 306 307 307 307 307 307 308 308 309 310 312 313 314 315 316 316 315 315 316 317 317 317 318 318 319 319 320 319 319 319 319 319 318 318 317 317 317 317 316 316 316 316 317 317 317 317 317 317 317 318 318 318 318 317 316 316 316 316 316 317 318 319 320 319 319 318 317 317 316 316 316 315 314 314 312 309 307 307 304 303 303
300 301 302 302 303 305 306 307 307 307 307 308 308 308 308 309 309 310 311 311 312 313 313 314 314 314 314 314 314 314 315 314 314 314 314 314 313 313 313 312 312 312 313 313 313 313 313 314 314 315 315 315 315 315 315 316 316 316 315 314 313 312 313 314 315 316 317 317 316 315 314 314 314 313 314 314 313 313 311 308 307 306 303 303 304
297 298 299 299 300 301 303 305 306 307 307 307 307 307 307 307 307 307 307 308 308 308 309 309 309 309 309 309 308 308 308 308 307 306 307 307 306 305 306 306 307 307 308 308 308 309 309 310 310 311 312 312 313 313 313 313 314 315 314 313 311 311 312 313 313 314 314 314 314 314 314 314 314 314 314 313 312 311 310 310 309 307 304 303 303
296 296 297 297 298 299 300 301 303 304 305 305 305 305 305 305 305 305 305 305 305 305 305 305 305 305 305 305 305 304 304 304 304 303 303 303 303 302 301 301 302 303 304 304 305 305 306 306 307 308 309 309 310 311 312 312 312 313 313 312 310 310 311 312 312 312 313 313 313 314 314 314 315 315 314 312 310 309 309 309 309 308 306 305 303
295 296 296 296 297 297 297 298 299 299 300 301 302 302 303 303 303 303 303 303 303 303 303 303 303 303 303 302 302 302 302 302 302 302 302 301 301 301 300 299 300 300 301 301 302 302 303 303 304 305 305 306 307 308 309 309 310 310 311 310 310 310 311 310 310 311 312 312 312 312 312 312 312 312 312 310 308 307 307 307 308 308 307 307 304
295 296 296 296 296 296 296 297 297 297 297 298 298 299 299 300 300 301 301 301 301 301 302 302 301 301 301 301 301 301 301 301 301 301 300 300 300 300 299 299 299 299 299 299 300 300 301 301 302 302 303 303 304 305 305 306 306 307 307 308 308 309 309 309 309 309 309 310 309 309 309 308 308 308 309 308 307 306 306 306 306 306 307 308 307
295 295 296 296 296 296 296 296 296 297 297 297 297 297 297 297 298 298 298 299 299 299 299 299 299 299 299 299 299 299 299 299 299 299 299 299 299 298 298 298 298 298 297 297 298 298 298 299 300 300 301 302 302 303 303 304 304 305 306 306 306 307 308 308 307 306 306 306 306 305 305 304 305 305 306 306 306 306 308 307 306 305 305 306 306
295 295 295 295 295 295 296 296 296 296 296 296 297 296 296 297 297 297 297 297 297 297 297 297 297 297 296 297 298 298 298 298 298 298 298 298 298 298 298 298 298 298 297 297 297 297 297 297 298 298 299 300 301 301 301 302 303 304 305 306 306 306 307 307 305 304 303 303 302 302 302 302 303 303 304 305 305 306 307 307 305 304 304 303 303
295 295 294 294 295 295 295 296 296 296 296 296 296 296 296 296 296 296 296 296 296 295 295 295 295 295 295 295 296 296 297 297 297 298 298 298 298 298 298 298 298 298 297 297 297 297 298 298 298 298 297 297 298 298 299 299 300 301 302 303 304 304 304 304 303 302 301 301 300 300 301 301 302 303 303 304 304 303 303 303 302 301 301 300 299
294 293 293 293 293 294 295 295 295 295 296 296 296 296 296 296 296 296 296 296 295 295 295 295 295 294 294 294 295 296 296 297 297 297 297 297 297 297 298 298 298 298 297 297 298 298 298 298 298 297 296 296 296 296 296 297 298 298 299 300 302 303 303 302 302 301 300 300 300 300 300 301 301 302 302 301 301 301 301 301 299 297 297 297 296
292 292 292 292 293 293 293 293 293 294 294 295 295 296 295 296 296 296 295 295 295 295 295 295 294 294 294 294 295 295 296 296 296 296 296 296 296 296 297 297 297 297 297 297 297 297 297 297 297 296 296 295 294 294 294 295 296 296 297 298 299 301 301 301 301 301 300 300 300 300 300 300 300 300 299 299 299 299 299 299 297 295 294 294 293
291 291 291 292 292 292 292 292 292 292 293 293 294 294 294 294 295 295 295 295 295 295 295 295 295 295 295 295 295 295 295 296 296 296 295 295 295 295 296 296 296 296 296 296 296 296 296 296 296 295 294 293 293 293 294 294 294 295 295 296 297 298 299 300 300 300 300 300 300 300 300 299 299 298 298 297 296 296 296 296 295 294 293 292 290
290 290 290 291 291 291 291 291 291 291 292 292 292 292 293 293 293 294 294 294 294 294 294 295 295 295 295 295 295 294 295 296 296 295 295 295 295 295 295 295 295 294 295 295 295 295 294 294 293 293 293 293 293 293 293 293 294 294 294 295 295 296 297 298 299 299 299 299 299 299 299 298 297 297 296 295 294 294 293 293 293 292 291 289 289
290 290 290 290 290 290 290 290 290 290 290 291 291 292 292 292 292 293 293 293 293 293 293 294 295 295 295 295 295 295 295 296 296 296 295 295 295 295 295 295 295 294 294 294 294 294 293 292 292 292 292 292 292 293 293 293 293 294 294 294 294 295 295 296 297 297 298 298 298 298 298 297 296 295 294 293 292 292 292 292 292 291 289 287 287
289 289 289 289 289 289 289 289 289 289 289 289 290 290 290 291 292 292 292 292 292 292 293 294 295 295 295 295 295 294 295 295 295 295 295 295 295 295 295 295 295 295 295 294 294 293 293 292 292 292 292 293 293 293 293 293 293 293 294 294 294 294 294 295 295 296 296 297 297 297 297 296 295 294 293 292 292 291 290 289 289 288 287 286 287
288 288 288 288 288 287 287 287 287 287 288 288 289 289 289 289 290 290 291 290 291 291 292 293 293 293 293 293 293 293 293 293 293 294 295 295 295 295 295 295 295 295 295 294 293 293 293 292 292 292 292 293 293 293 293 293 293 293 293 294 294 294 294 294 295 295 295 295 295 295 295 295 295 294 293 292 291 289 288 287 287 286 286 286 287
286 286 286 286 286 285 285 285 285 285 286 287 287 288 288 288 289 289 289 289 289 290 290 291 291 291 291 291 291 291 292 292 292 293 293 294 294 295 295 295 295 295 294 294 293 293 293 293 292 293 293 293 293 293 293 293 293 293 293 293 294 294 294 294 295 295 295 295 295 295 295 295 295 294 292 291 290 289 287 286 286 286 285 285 286
283 283 284 284 284 283 283 283 283 284 285 285 286 286 287 287 288 288 288 288 288 289 289 289 289 289 289 290 290 290 291 291 291 291 291 292 293 293 294 294 295 294 294 293 293 292 293 293 293 293 293 293 293 293 293 293 293 293 293 293 294 294 294 294 294 294 294 294 294 294 294 294 294 293 292 290 289 288 287 286 286 285 285 285 285
280 280 281 281 281 281 281 281 282 283 283 284 285 285 285 286 286 287 287 287 287 288 288 288 288 288 288 288 289 289 290 290 290 289 289 290 291 292 293 293 294 294 293 293 292 292 292 292 292 292 292 292 292 292 292 293 293 293 293 293 293 294 294 294 294 294 294 294 294 294 294 294 293 293 292 290 289 288 287 286 286 285 285 285 285
278 278 279 279 279 279 280 280 281 282 282 283 283 284 284 284 285 286 286 286 287 287 287 287 287 287 287 287 288 289 289 288 288 288 288 289 290 291 292 292 292 292 292 292 292 292 291 291 291 292 292 292 292 292 292 292 292 293 293 293 293 293 294 294 294 294 294 293 293 293 293 293 293 292 292 290 289 288 287 286 286 285 285 285 285
277 276 277 277 277 278 279 279 279 280 280 281 282 282 283 283 284 284 285 285 285 286 286 286 286 286 286 287 287 287 287 287 287 287 288 289 289 290 291 291 291 291 291 291 291 291 291 291 291 291 291 292 292 292 292 292 292 292 293 293 293 293 294 294 294 294 294 293 293 293 293 293 293 292 291 290 289 288 288 287 286 285 285 285 284
274 274 275 276 276 277 277 277 278 278 279 279 280 281 281 282 282 282 283 283 284 284 284 285 285 285 285 285 286 285 285 286 286 286 287 288 288 289 289 290 290 290 290 290 290 291 291 291 291 291 291 291 291 291 292 292 292 292 292 292 293 293 293 293 294 294 294 293 293 293 293 293 292 292 291 290 290 289 288 287 286 285 284 284 284
271 272 273 274 275 276 276 276 276 276 277 278 278 279 279 280 280 281 281 282 282 282 283 283 283 284 284 284 284 284 284 285 285 286 286 286 287 287 288 288 289 289 289 289 290 290 290 290 290 291 291 291 291 291 291 291 292 292 292 292 292 292 293 293 293 293 293 293 293 293 293 292 292 292 291 290 290 289 288 287 286 285 284 284 283
270 270 272 273 274 274 274 274 274 275 275 276 276 277 277 278 279 279 279 280 280 280 281 281 282 282 282 282 282 283 283 283 284 284 285 285 285 286 286 287 287 288 288 288 289 289 289 290 290 290 290 291 291 291 291 291 291 292 292 292 292 292 292 293 293 293 293 293 293 293 293 292 292 292 291 290 289 289 288 287 286 285 284 283 283
269 270 271 272 272 272 272 272 273 273 274 274 275 275 276 277 277 277 278 278 279 279 279 280 280 280 280 281 281 281 281 282 282 282 283 283 284 284 285 285 286 286 287 287 287 288 288 289 289 289 289 290 290 290 290 291 291 291 291 291 292 292 292 292 292 292 292 292 292 292 292 292 292 291 290 290 289 288 288 287 285 284 284 283 283
268 269 269 269 269 270 270 271 272 272 273 273 274 275 275 276 276 276 277 277 278 278 278 279 279 279 279 279 279 280 280 280 281 281 281 282 282 283 283 283 284 284 285 285 286 286 286 287 287 288 288 288 289 289 289 290 290 290 291 291 291 291 291 292 292 292 292 292 292 292 292 292 291 291 290 289 289 288 287 286 285 284 283 283 282
267 267 267 267 268 268 269 270 270 271 272 273 273 274 274 275 275 276 276 277 277 277 278 278 278 278 278 279 279 279 280 280 280 281 281 281 281 282 282 282 283 283 283 284 284 284 285 285 286 286 286 287 287 288 288 289 289 290 290 290 291 291 291 291 291 292 292 292 292 292 291 291 291 290 289 289 288 287 286 285 284 283 283 282 281
265 265 265 266 266 267 268 269 269 270 271 271 272 272 273 274 274 275 275 276 277 277 277 278 278 278 278 277 278 278 279 279 280 280 280 280 281 281 282 282 282 282 283 283 283 283 284 284 284 285 285 285 286 286 287 288 288 289 290 290 290 291 291 291 291 291 291 291 291 291 291 290 290 289 288 288 287 286 285 284 283 283 282 281 281
263 264 264 265 266 266 267 268 269 269 270 271 271 272 272 272 273 273 274 274 275 275 275 276 276 276 276 276 277 277 277 278 278 279 279 280 280 280 281 281 282 282 283 283 283 283 284 284 284 284 285 285 285 285 286 286 287 287 288 288 289 289 290 290 290 291 291 291 291 290 290 290 289 288 288 287 286 286 285 284 283 282 282 281 281
263 263 264 265 265 266 267 267 268 269 269 270 270 271 271 271 272 272 273 273 274 274 274 274 275 274 275 275 276 276 276 276 277 277 278 278 278 278 279 279 280 280 280 280 281 281 282 283 284 284 285 285 285 285 285 285 285 285 285 286 286 287 288 289 290 290 290 290 290 290 290 289 288 288 287 286 286 285 284 284 283 282 281 281 280
263 264 264 265 266 266 267 267 268 268 269 269 270 270 271 271 271 272 272 272 273 273 273 273 273 273 274 274 274 275 275 276 276 276 276 277 277 277 277 278 278 278 278 278 279 280 280 281 282 283 283 284 284 284 284 284 284 285 285 285 286 287 288 288 289 290 290 290 290 290 290 289 288 287 286 286 285 284 284 283 282 282 281 281 280
264 264 264 265 266 266 267 267 268 268 268 268 269 269 269 270 270 270 270 271 271 271 271 271 272 272 272 272 272 272 273 273 274 274 274 275 275 275 275 275 276 276 277 277 278 278 279 279 279 280 280 281 282 282 282 283 283 283 283 284 285 285 286 286 287 288 289 289 289 289 289 288 288 287 286 285 284 284 283 282 282 281 281 280 279
263 263 264 264 265 265 265 266 266 266 266 267 267 267 268 268 268 268 269 269 269 269 269 269 269 269 269 269 269 270 270 271 271 271 271 272 272 272 272 272 272 273 274 275 275 276 276 276 277 278 278 279 279 280 280 280 280 281 281 281 282 282 283 283 284 285 287 288 288 288 288 288 287 286 285 285 284 283 283 282 281 280 280 279 279
262 262 262 263 263 263 263 264 264 264 265 265 266 266 266 266 266 267 267 267 267 267 268 267 267 267 267 267 267 268 268 268 269 269 269 269 269 269 269 269 270 270 271 272 273 273 274 274 275 275 275 276 276 276 277 277 277 278 278 278 279 279 280 280 281 282 284 285 286 287 287 287 286 286 284 284 283 283 282 281 280 280 279 278 278
262 261 261 261 261 262 262 262 262 262 263 264 264 264 264 264 264 265 265 265 266 266 266 266 265 265 266 266 266 266 266 267 267 267 267 267 267 267 267 267 268 268 269 269 269 270 270 271 271 272 272 272 273 273 274 274 275 275 276 276 276 277 278 278 279 280 281 283 284 286 286 286 286 285 284 283 282 282 281 280 279 279 278 278 277
Wind_Speed
37 39 41 42 43 44 44 44 45 45 45 43 43 43 44 45 45 45 43 41 40 39 40 41 41 41 41 41 42 43 43 43 43 42 41 42 43 42 40 38 39 41 39 37 37 37 37 38 40 40 37 34 35 35 33 33 32 33 33 33 33 32 31 25 15 15 26 30 26 25 24 21 23 25 24 22 21 22 23 23 23 24 25 27 27
37 37 38 39 41 42 43 42 42 42 42 42 42 43 44 44 44 42 40 40 39 39 40 40 40 40 39 40 41 42 42 42 41 40 41 42 42 41 40 38 39 40 38 37 38 37 36 38 40 40 36 34 36 35 34 33 32 32 33 33 33 32 31 29 22 14 20 30 29 25 27 27 27 28 26 25 24 24 25 25 25 26 27 29 30
33 33 34 36 38 39 39 40 39 38 39 40 42 43 43 43 42 40 40 40 38 39 40 40 38 38 38 39 40 41 41 41 40 40 41 42 42 41 40 39 39 40 39 39 39 37 35 37 40 40 36 33 36 36 34 33 33 33 34 34 34 34 32 32 28 20 18 27 31 27 25 27 29 30 29 28 26 26 27 28 29 30 30 31 32
28 28 30 33 34 35 36 37 37 37 38 39 40 42 42 41 39 38 39 38 37 38 39 39 37 37 38 39 40 40 40 40 40 40 42 42 42 41 40 40 40 40 41 41 39 37 36 37 40 40 35 33 35 36 34 33 33 34 35 35 34 34 34 33 33 29 23 23 30 30 27 27 30 31 30 29 29 29 30 32 32 32 31 31 32
24 25 26 29 31 33 34 35 36 37 38 39 39 40 39 39 39 38 38 38 38 39 39 38 38 37 38 39 39 39 40 40 40 40 42 42 42 42 41 40 41 41 42 42 40 39 38 39 40 39 35 33 33 34 33 33 33 34 34 35 35 34 34 33 34 33 28 23 27 31 29 28 29 30 30 30 29 29 31 32 31 31 32 32 33
20 21 22 25 28 31 33 34 35 36 37 37 38 38 38 38 38 38 39 39 38 38 38 38 38 38 39 39 39 40 40 40 41 41 42 42 42 42 41 40 41 41 42 41 41 40 39 39 40 38 36 35 34 34 34 33 33 34 34 35 35 33 32 33 33 32 30 28 29 30 31 30 28 28 28 28 28 29 31 31 32 33 33 32 32
18 19 21 23 26 29 30 31 32 33 34 35 35 36 36 36 37 38 39 38 37 37 37 37 38 39 40 40 40 40 40 40 41 41 42 41 41 40 40 40 40 40 41 41 40 39 38 39 39 38 37 36 36 35 35 34 34 34 36 36 34 32 31 32 32 31 31 30 28 29 31 30 28 28 27 26 27 30 30 28 28 31 32 31 32
17 18 19 21 25 27 27 27 28 29 30 31 32 32 33 34 35 36 36 35 36 37 37 37 38 38 39 40 40 40 39 39 40 41 41 40 39 39 39 39 39 38 38 38 38 37 38 38 39 39 40 39 38 38 37 36 34 34 35 35 34 32 32 31 31 30 29 28 27 29 29 27 28 28 26 25 25 27 29 26 25 28 30 31 34
16 17 18 21 23 23 23 23 24 25 26 27 28 29 30 31 33 33 33 34 35 36 37 37 37 37 38 39 39 38 38 39 40 40 40 39 38 38 38 38 37 36 36 36 36 37 37 38 39 40 41 40 40 40 39 38 37 36 36 34 33 33 32 31 30 29 27 25 25 27 24 23 26 27 25 26 28 27 27 26 26 29 30 30 34
15 16 17 18 18 18 18 19 20 22 23 25 26 27 28 29 30 31 32 33 33 34 34 35 35 36 36 37 37 37 37 39 40 40 40 39 38 37 37 37 36 35 35 35 35 36 37 38 39 41 42 41 41 41 42 42 42 41 40 37 34 33 32 31 30 29 26 23 24 24 19 18 25 27 26 28 29 27 24 23 25 28 26 24 27
14 15 15 14 14 14 15 15 16 17 19 21 23 24 25 26 27 28 29 30 31 31 32 33 34 35 35 35 35 36 37 39 39 39 38 38 37 36 35 35 35 34 35 35 35 36 36 37 39 39 39 39 40 41 42 43 44 45 44 42 40 38 36 33 30 29 27 24 25 25 20 21 26 27 26 27 26 25 26 26 26 25 21 16 15
11 13 13 12 12 12 13 12 13 15 16 18 20 21 22 23 25 26 27 28 29 29 30 31 32 32 32 33 34 35 36 37 37 36 36 36 36 36 35 34 33 33 34 35 36 36 35 36 38 39 38 38 39 40 41 43 45 45 45 45 45 44 43 41 37 34 31 28 27 26 26 26 27 27 28 28 26 27 29 29 28 25 23 19 16
8 10 11 12 12 12 12 12 12 14 15 16 18 18 19 22 23 24 25 25 25 26 27 28 29 29 29 30 32 33 34 34 34 33 33 33 33 33 34 33 33 32 32 33 34 34 35 35 36 37 37 37 37 38 39 41 43 44 45 46 47 47 48 48 46 43 40 37 33 31 33 33 30 30 31 29 26 27 28 28 28 28 26 25 25
6 8 10 10 11 11 12 13 14 15 15 16 16 17 18 19 21 22 22 23 23 24 25 26 26 27 27 28 30 31 32 32 30 29 30 30 30 30 31 32 33 33 34 33 33 34 35 36 37 37 36 36 37 38 39 39 38 38 38 41 45 47 48 49 49 48 47 45 41 38 39 38 37 37 35 30 29 30 29 29 29 29 31 32 33
4 7 9 9 9 9 11 13 14 15 15 16 16 17 17 18 19 20 20 21 22 23 23 24 24 25 25 26 27 28 29 27 26 26 26 26 26 26 27 28 30 31 33 33 32 32 33 33 33 33 33 33 34 35 35 35 33 33 33 36 39 42 45 47 48 49 50 50 48 44 42 40 40 39 35 32 33 35 34 33 31 30 31 31 30
6 7 8 9 9 8 8 11 13 14 14 15 16 16 16 17 18 18 18 19 19 19 19 20 20 21 21 22 23 25 26 24 22 22 23 23 23 23 24 26 28 30 32 33 33 33 32 32 32 31 32 32 32 33 35 35 37 37 37 38 39 40 43 45 45 48 51 52 52 51 48 45 43 41 38 36 37 38 35 32 30 28 24 20 19
11 10 9 9 9 7 7 8 9 11 12 13 13 13 14 14 15 16 16 17 17 18 18 18 19 19 20 21 22 24 25 24 23 23 24 24 24 24 25 26 28 30 33 34 34 34 34 34 33 33 34 35 34 34 34 34 36 37 36 36 37 39 41 41 42 46 48 50 51 52 50 46 43 41 39 36 36 36 32 29 27 25 19 13 11
12 10 9 9 9 8 6 6 6 8 9 9 10 10 11 11 12 13 14 15 15 16 17 19 19 20 21 22 23 25 27 26 25 26 26 26 26 26 26 27 28 30 32 33 33 33 33 33 33 33 34 33 31 30 28 28 30 32 32 33 34 36 39 38 39 42 43 44 47 47 45 44 41 38 36 34 34 34 34 32 29 25 21 15 11
13 10 9 10 9 8 6 5 4 6 7 7 7 7 8 8 9 10 11 12 13 14 15 16 17 17 18 19 20 21 24 24 22 22 23 23 23 24 24 25 28 29 30 30 31 32 32 33 34 35 36 36 35 34 33 33 33 33 33 32 33 36 38 36 36 38 39 40 42 43 42 42 40 38 38 38 37 36 37 37 33 28 25 21 17
13 10 9 9 8 7 6 4 3 3 5 6 6 6 6 6 7 8 9 10 11 12 12 13 14 14 14 15 16 17 19 20 18 18 18 18 19 20 21 23 25 26 26 26 27 28 30 30 31 32 33 34 34 34 33 33 33 33 33 32 33 35 34 31 32 35 37 39 40 41 41 40 38 39 39 38 37 36 37 37 36 34 30 25 22
13 11 10 9 9 8 8 7 6 5 5 5 5 5 6 6 7 7 7 8 9 10 11 11 13 13 13 14 15 15 16 17 17 16 16 17 17 18 20 23 24 23 24 24 25 26 27 28 28 28 28 29 30 30 31 32 33 33 34 35 36 35 32 30 30 31 34 38 39 38 38 36 35 36 36 36 37 37 37 37 37 37 36 30 25
14 15 14 14 14 14 13 12 11 10 9 8 7 6 6 6 6 6 6 7 8 9 10 10 12 14 14 14 16 16 16 17 17 17 17 17 17 17 20 22 22 22 23 24 24 25 25 26 26 26 26 27 27 27 29 29 30 32 34 35 36 35 33 33 32 29 31 33 34 33 33 33 33 34 34 36 37 37 35 34 35 37 38 38 34
16 17 18 19 19 18 18 18 17 16 15 13 13 12 10 9 8 7 7 7 8 9 9 10 12 14 15 16 15 15 15 16 16 17 17 17 17 17 18 20 21 21 23 24 23 24 25 26 26 26 25 25 25 25 26 27 29 32 34 33 33 32 33 34 33 30 30 29 29 29 29 29 30 32 33 35 37 36 34 33 35 37 38 39 39
18 20 21 22 21 20 20 21 20 20 19 18 18 18 17 16 14 13 12 11 10 10 11 11 12 13 16 18 18 17 16 16 15 15 15 15 16 16 17 18 19 20 23 25 24 25 26 25 25 25 24 24 23 23 24 26 27 29 30 30 30 30 31 33 32 29 27 26 26 26 27 27 28 30 32 34 34 34 33 32 33 36 37 38 38
19 21 23 23 22 21 21 21 21 21 21 21 21 21 21 20 18 18 17 16 15 14 14 14 14 15 16 19 21 22 21 19 17 15 15 15 15 16 16 18 18 19 22 24 25 25 25 25 25 25 25 25 25 25 27 27 28 27 26 25 26 28 29 30 29 26 24 24 23 25 26 27 28 30 31 31 30 28 28 29 30 32 34 34 34
18 20 21 21 21 21 21 21 21 21 20 21 20 20 21 20 20 19 18 18 16 15 15 15 16 16 17 18 21 23 22 20 19 19 19 18 16 16 16 16 17 18 20 22 23 24 25 25 25 25 25 24 24 25 27 28 28 28 26 25 26 28 29 30 28 26 24 24 23 24 25 25 26 27 26 26 27 27 27 28 30 31 31 30 29
17 18 19 18 19 19 20 21 21 20 20 20 19 19 19 19 19 19 18 17 16 15 14 14 14 14 15 18 20 21 21 20 19 20 22 21 19 17 16 16 17 17 19 20 21 22 23 24 24 23 23 22 22 23 24 25 25 26 26 25 25 27 28 28 29 28 27 26 25 25 24 22 22 23 24 25 27 28 29 30 30 30 30 28 25
15 16 16 17 17 17 19 20 20 20 20 19 19 18 18 17 17 16 15 14 14 14 13 13 13 13 14 16 19 19 19 19 19 20 21 21 20 18 17 17 18 19 21 21 22 23 24 23 22 21 20 20 21 21 22 23 23 23 24 24 25 26 26 27 28 29 29 27 25 23 21 20 21 22 24 25 26 27 28 30 30 29 28 27 21
15 15 15 16 17 17 17 18 18 19 19 19 18 17 16 15 14 13 12 12 12 12 12 13 13 13 13 14 15 16 18 19 19 19 19 19 19 19 19 18 19 20 20 20 21 24 24 21 20 19 19 19 19 20 20 21 21 22 22 23 23 24 25 26 27 28 28 27 25 23 21 21 22 23 23 24 25 25 27 29 29 27 26 25 21
15 16 16 16 17 16 16 17 17 17 18 18 18 17 16 15 12 10 10 12 12 11 11 11 11 11 11 11 11 13 17 20 21 20 19 19 19 18 18 18 18 19 18 17 18 21 21 19 18 18 17 17 18 18 18 19 19 20 21 21 22 23 24 25 26 26 26 26 26 25 24 23 22 22 23 23 23 24 26 29 29 27 26 24 21
14 15 16 17 17 17 17 17 17 17 17 18 18 19 19 17 14 10 9 12 14 12 9 8 8 9 10 12 13 14 17 19 20 20 20 20 19 18 18 18 18 18 17 15 16 18 17 17 18 18 17 17 18 18 18 18 18 19 20 20 21 22 23 24 25 25 25 26 26 26 26 25 23 22 23 24 23 23 25 26 26 25 24 23 21
13 14 15 15 16 17 18 18 19 18 18 19 19 19 19 19 17 13 11 13 15 12 8 6 6 8 10 13 15 17 18 18 18 18 19 18 19 19 19 19 19 18 16 13 14 17 16 16 17 18 17 17 18 19 19 19 19 20 20 20 20 21 22 24 25 26 26 25 25 25 24 24 23 22 23 24 23 22 23 24 24 24 24 24 22
13 13 14 14 15 16 17 18 18 18 18 18 18 18 17 16 16 17 17 16 14 10 7 6 8 10 11 13 15 17 17 16 16 17 17 18 19 20 21 21 20 19 15 12 13 16 16 16 17 18 18 18 19 20 20 20 20 20 20 21 21 22 23 24 25 26 26 26 25 25 24 24 24 23 22 23 23 22 22 23 25 25 23 22 20
12 11 12 12 13 14 15 15 15 15 16 16 16 16 16 15 16 18 20 19 15 11 10 11 13 14 14 15 15 14 13 14 15 17 18 18 18 20 22 22 21 19 15 12 13 15 16 16 17 19 19 20 20 20 20 21 20 20 21 22 23 24 24 24 25 25 26 26 26 26 25 24 23 22 21 20 21 20 20 21 21 21 20 19 18
11 10 10 10 12 13 13 14 14 15 15 15 15 15 15 16 16 16 17 18 18 18 18 17 18 18 18 18 16 14 13 15 17 20 21 19 18 20 22 22 20 18 16 14 14 16 17 17 19 20 20 21 21 21 21 21 21 21 22 22 23 23 23 23 24 25 26 26 26 26 25 24 23 23 21 20 20 20 19 20 21 21 20 20 18
10 10 10 11 11 12 13 13 13 14 14 15 15 15 15 15 15 15 15 16 18 21 22 22 22 20 18 17 16 16 17 18 20 22 22 19 16 18 21 20 19 19 19 18 19 20 20 20 21 22 22 22 22 22 22 23 23 23 23 23 23 23 23 23 24 25 25 26 26 26 25 24 23 22 21 20 20 21 21 22 23 23 23 21 19
8 9 10 11 12 12 12 12 12 13 14 14 15 15 15 14 14 14 14 15 16 18 20 22 23 21 18 16 16 18 20 22 22 21 19 16 14 15 18 20 20 20 20 20 21 22 23 23 23 24 24 24 24 24 24 25 25 25 24 24 24 24 24 25 25 25 25 25 26 26 25 24 24 23 22 20 20 20 21 23 23 23 24 23 19
7 9 10 11 11 11 12 13 13 13 13 14 14 15 14 14 14 13 13 14 14 15 17 18 20 20 20 20 20 22 23 23 21 18 16 15 15 15 17 19 20 20 20 21 22 23 25 25 25 25 26 26 26 26 26 26 26 26 25 25 25 26 26 26 26 26 26 26 26 26 26 25 24 24 23 22 21 21 22 23 23 22 22 22 21
7 8 9 9 9 9 11 13 13 13 14 14 14 15 14 14 14 14 14 14 14 14 15 16 16 17 20 22 24 25 24 21 18 18 18 18 17 17 18 19 20 20 21 22 22 23 25 27 27 27 28 28 27 27 27 27 27 27 27 26 26 26 26 25 25 26 26 27 27 27 26 26 26 25 24 24 24 23 23 23 24 23 21 21 22
9 8 7 7 7 8 10 11 11 12 13 13 14 15 14 14 14 14 15 15 14 14 14 15 15 17 19 22 24 25 24 21 19 18 19 19 19 19 19 19 20 21 22 22 23 23 25 26 27 27 28 29 28 28 28 28 28 28 27 26 26 27 26 26 26 26 26 27 28 27 27 27 26 25 25 26 26 25 23 23 24 24 22 21 21
9 8 6 6 7 9 9 9 9 10 11 12 13 13 13 13 13 14 15 15 14 14 14 15 16 18 19 21 22 24 24 24 22 22 21 20 20 20 20 20 21 22 23 23 24 24 25 27 27 28 29 29 29 29 29 29 29 28 28 27 27 28 28 28 27 28 28 28 28 28 28 29 28 26 27 28 27 26 25 24 24 23 22 21 20
9 8 7 7 8 9 9 9 9 10 11 11 11 11 12 12 13 14 14 14 14 15 15 16 16 18 19 21 22 23 24 24 25 25 24 23 23 23 23 23 24 24 25 25 25 26 27 28 28 29 29 29 30 29 29 30 29 28 28 28 28 28 29 29 29 29 29 28 29 30 30 30 30 29 30 30 28 27 26 25 23 23 22 21 21
9 8 8 9 9 9 9 10 10 11 11 11 12 12 12 12 13 14 14 14 15 16 16 17 18 19 20 21 23 23 23 24 25 26 26 26 27 27 26 26 26 27 28 28 28 28 28 29 30 30 30 30 31 30 30 31 30 30 30 30 29 29 30 30 29 29 28 28 30 31 31 30 30 31 30 30 29 27 27 26 25 24 24 23 23
9 9 9 9 9 9 9 9 10 10 10 11 12 12 12 13 14 14 14 15 15 16 16 17 19 20 21 22 23 23 23 23 25 26 27 28 29 28 28 28 29 29 30 30 30 30 29 30 31 32 32 31 30 30 30 31 31 31 31 30 30 30 31 30 30 29 28 29 30 30 29 29 30 30 30 30 29 27 26 26 26 25 25 24 24
11 10 10 9 9 9 9 9 9 9 10 10 10 11 11 12 13 13 14 14 15 16 16 17 18 20 21 22 22 22 22 23 24 25 26 26 28 29 29 30 30 30 30 30 30 30 30 31 32 33 33 33 32 32 31 31 32 32 32 33 33 33 33 33 32 31 30 30 30 30 30 29 30 30 30 29 29 28 27 27 27 26 25 25 25
11 11 10 10 10 9 10 10 10 10 11 11 10 11 12 12 13 13 13 14 15 16 16 17 18 20 21 21 21 21 22 23 23 24 25 26 28 29 30 30 30 30 31 32 32 33 33 33 33 33 33 34 34 33 32 32 32 33 34 36 37 37 37 36 35 33 32 32 32 31 31 31 31 31 30 30 29 29 28 27 28 27 27 27 26
10 9 9 9 9 9 10 10 10 11 11 11 11 11 12 12 12 13 13 14 14 15 15 16 18 19 19 20 20 21 22 22 23 24 25 26 27 29 30 30 31 32 33 34 34 33 32 32 32 32 33 33 33 33 32 32 33 33 33 33 33 34 35 35 35 34 34 34 34 33 33 32 31 31 31 30 29 28 27 27 27 27 27 27 26
8 8 8 8 8 8 9 10 9 10 10 10 10 10 10 10 11 12 12 13 13 14 15 16 17 18 19 20 20 21 21 22 23 24 25 26 27 28 29 31 32 32 33 33 33 32 31 32 33 34 36 36 35 34 34 34 34 33 33 32 32 33 34 35 36 36 36 35 34 34 34 34 32 31 31 30 30 29 28 27 26 26 26 25 25
8 7 7 7 7 7 8 8 8 8 9 9 9 10 10 10 10 11 11 12 13 14 15 16 17 18 19 20 20 21 21 22 23 24 25 26 27 28 29 30 31 31 31 32 32 33 33 33 33 34 34 34 34 33 34 34 34 33 33 33 33 34 35 36 37 38 38 37 35 34 34 34 33 31 31 31 31 30 28 27 26 26 26 24 24
9 9 8 7 7 8 8 8 8 9 9 9 10 10 10 11 12 12 13 13 14 15 15 16 17 18 18 19 20 20 20 21 22 23 24 26 28 29 29 30 30 30 30 30 31 31 31 31 31 31 32 32 33 33 33 34 34 34 34 35 36 36 37 37 38 39 39 39 37 35 34 34 32 30 30 30 30 29 28 26 26 26 26 25 24
12 12 11 10 10 10 10 9 10 11 11 11 12 12 13 14 14 14 14 15 16 17 17 18 19 19 19 20 20 20 20 21 21 22 24 26 27 28 28 29 29 29 29 30 31 31 31 31 31 31 32 32 32 32 33 34 35 36 36 37 37 37 37 37 37 37 37 38 37 35 34 33 32 30 29 29 29 28 27 27 27 26 25 25 25
Wind_Direction
236 235 234 233 233 233 233 233 233 233 233 233 232 233 234 234 235 236 236 236 235 234 234 233 233 233 232 232 232 232 232 232 231 229 229 230 232 232 233 232 232 236 238 238 238 238 237 239 241 242 240 238 239 238 236 235 233 230 228 228 228 227 227 229 234 255 262 262 262 264 263 259 254 249 246 247 246 245 247 249 250 251 252 254 255
238 237 236 235 235 235 234 234 234 233 233 232 232 233 234 235 236 236 236 236 235 234 235 235 234 233 232 233 233 233 233 233 232 229 229 231 232 232 232 232 232 235 237 238 238 238 237 239 242 243 240 238 239 239 236 234 230 228 227 226 227 228 226 228 235 245 260 263 262 262 261 255 250 247 246 247 248 245 243 246 249 252 252 252 254
240 240 239 239 239 238 237 236 235 234 232 232 232 233 234 235 236 236 236 237 236 235 236 236 235 233 233 233 233 233 233 233 232 230 230 231 231 232 232 231 232 234 235 238 239 237 236 238 241 242 240 237 238 239 237 234 229 227 228 227 227 230 229 229 235 239 250 260 262 259 255 250 247 247 248 249 250 248 248 251 254 254 253 251 251
244 245 245 245 244 242 240 238 236 234 233 233 233 234 235 235 235 235 236 237 236 236 236 236 235 234 233 234 234 233 233 233 232 231 232 232 232 232 233 232 232 234 235 237 238 237 236 237 240 241 239 236 237 238 236 234 231 229 230 231 230 232 233 232 235 238 241 252 258 258 254 251 250 250 250 248 248 251 255 256 254 253 254 252 250
247 248 248 249 248 246 243 240 238 236 235 235 235 236 236 235 235 235 236 236 236 237 237 236 235 235 234 235 234 234 234 233 232 232 233 233 233 234 234 233 233 234 236 238 238 237 236 237 240 240 237 235 235 236 236 234 233 232 231 233 233 233 235 235 234 236 237 244 254 258 259 255 252 251 248 244 246 251 253 252 251 253 254 251 248
253 252 250 250 250 248 246 243 241 240 239 238 238 238 237 236 236 236 236 237 237 237 237 237 236 236 237 237 236 236 235 234 233 234 234 234 234 234 234 234 235 236 237 238 239 238 237 238 240 240 237 236 235 235 236 236 235 235 234 235 236 234 233 233 233 235 238 243 250 255 256 253 248 246 244 243 247 250 248 247 247 248 249 247 247
259 256 253 251 250 250 249 248 247 246 245 244 242 241 239 238 237 237 237 237 236 237 237 238 239 239 239 239 238 238 237 235 235 235 235 234 234 234 234 235 236 237 238 239 240 240 239 240 240 240 238 237 236 236 237 237 237 237 237 237 236 234 232 233 234 235 237 242 245 247 249 249 247 246 247 247 248 247 244 241 240 241 240 242 247
264 260 256 253 253 254 255 255 255 254 253 251 248 245 242 241 240 239 238 237 237 238 239 240 240 241 241 241 240 240 238 236 236 235 235 234 233 234 235 235 236 237 239 240 241 241 242 242 242 242 241 240 239 238 238 238 238 238 239 238 235 233 232 233 234 234 236 238 240 242 244 245 245 247 247 243 241 240 238 235 237 242 244 246 250
262 259 256 255 258 261 262 263 262 261 260 256 253 249 245 243 241 239 238 237 238 239 240 240 240 241 241 241 241 241 239 238 238 237 236 234 234 234 235 236 236 238 239 241 242 242 243 243 244 244 244 243 242 241 241 240 239 240 240 238 235 233 232 233 232 232 234 235 238 241 241 241 241 240 236 232 232 236 236 233 237 246 250 252 251
252 252 253 257 263 267 269 270 269 267 264 260 256 252 248 244 241 239 237 237 238 238 238 238 238 239 240 241 241 240 240 240 241 241 239 237 236 235 235 236 237 238 239 241 243 244 244 245 246 246 246 245 245 245 245 244 243 243 243 240 236 232 231 232 231 231 232 234 237 238 238 240 239 234 230 230 231 233 234 234 240 247 248 250 251
247 248 252 259 264 267 269 271 273 271 267 262 258 254 249 246 243 240 239 238 238 238 237 236 237 238 239 240 240 241 241 243 243 242 241 240 239 237 236 238 238 238 240 241 243 245 246 246 247 248 247 246 245 246 247 247 248 247 246 243 240 237 234 232 232 232 232 235 238 236 233 239 239 234 235 239 237 236 240 240 240 240 236 237 249
250 254 258 260 258 258 260 262 266 267 266 262 258 255 251 248 244 242 241 240 239 237 236 237 238 239 239 239 240 242 244 245 245 244 243 242 241 240 239 239 240 240 241 242 245 247 247 248 248 248 248 247 247 248 249 250 251 251 250 247 244 242 239 237 236 234 232 235 237 234 232 238 242 240 241 244 241 239 240 238 234 233 230 230 236
262 264 267 266 261 257 252 250 252 256 259 259 258 255 251 248 246 245 244 243 242 240 239 240 240 239 239 239 241 243 245 247 246 245 245 244 244 243 242 242 242 243 244 245 246 247 248 249 250 249 248 248 248 248 249 250 252 252 251 249 247 245 243 242 241 239 238 237 237 236 236 238 243 245 246 244 238 233 231 229 230 231 229 232 241
281 284 282 277 271 263 257 252 250 250 251 253 255 254 252 252 251 250 248 246 244 242 241 241 241 240 240 241 243 246 248 249 248 248 248 249 248 248 248 247 247 247 248 248 248 248 248 249 249 250 250 249 249 249 249 249 250 251 250 248 246 245 244 243 242 242 241 239 239 241 241 240 243 247 247 242 236 232 230 230 232 233 235 241 251
320 307 299 295 287 275 269 265 260 256 253 250 250 249 251 253 254 253 251 249 247 245 244 243 243 243 242 243 245 247 249 250 250 250 250 250 250 248 247 247 248 249 249 249 248 248 248 249 250 251 250 249 247 246 247 248 251 253 253 251 250 249 247 246 245 244 244 243 244 246 246 245 247 247 245 245 244 243 244 244 244 245 246 248 252
22 349 328 320 312 300 290 281 275 272 265 257 252 248 248 251 253 254 253 251 250 248 247 247 247 246 245 245 245 248 249 250 250 250 249 249 249 249 249 251 253 254 255 254 253 253 254 255 256 255 255 255 254 255 257 258 257 255 252 251 251 251 250 249 250 250 250 249 249 249 249 249 250 249 249 252 251 247 246 245 242 240 239 240 242
37 18 356 343 335 326 315 302 295 290 282 274 267 263 261 260 260 260 259 256 253 251 249 249 249 250 249 248 249 252 253 252 252 252 252 252 252 253 253 255 257 258 258 258 259 259 259 258 258 259 259 259 260 260 260 258 253 249 248 249 250 250 250 250 251 253 253 252 251 250 248 248 249 250 251 250 249 246 239 233 229 224 219 224 237
29 18 359 348 343 337 329 317 310 307 301 295 290 286 284 280 275 272 269 267 264 261 259 256 255 254 254 253 255 257 258 258 256 255 254 253 254 255 256 257 258 258 259 260 260 260 260 260 259 259 260 260 261 262 262 260 257 254 252 252 252 252 253 252 252 253 253 253 251 249 248 248 247 248 249 248 249 247 237 230 227 219 212 221 232
17 6 348 336 332 330 329 320 309 305 304 305 301 295 291 288 284 281 278 276 275 272 270 269 267 266 264 264 265 265 267 268 267 264 263 261 260 259 258 258 258 258 259 260 261 261 260 260 260 260 261 262 263 264 264 263 261 259 255 253 251 252 254 254 253 253 252 251 250 248 248 249 248 250 254 254 252 245 237 234 230 219 215 224 226
20 12 355 342 337 336 339 345 343 326 313 310 304 295 291 287 285 285 283 282 279 277 276 276 277 277 276 277 277 276 278 281 281 279 277 274 270 266 260 257 258 259 261 263 264 265 264 263 262 261 261 263 262 262 262 260 259 259 256 251 250 254 258 259 256 254 252 251 250 249 248 249 250 252 255 255 249 242 237 236 232 225 224 229 226
33 40 35 26 23 20 18 22 23 16 357 336 322 311 302 294 289 290 289 286 284 282 282 281 281 283 283 283 283 282 284 285 286 287 285 281 279 273 264 259 258 261 265 266 266 267 268 268 268 267 266 266 265 264 263 261 261 262 258 255 256 261 264 263 260 258 254 252 251 250 249 249 249 249 251 252 249 243 239 237 235 232 233 236 233
42 53 55 52 50 47 44 44 42 39 34 24 15 4 345 326 314 308 302 298 295 292 290 290 289 288 287 286 286 287 289 290 290 290 290 287 285 280 272 268 266 264 266 267 267 268 270 271 273 274 273 273 271 269 266 264 263 264 263 263 266 268 268 266 264 260 254 250 248 247 246 245 243 243 246 249 248 243 240 241 241 238 239 242 240
44 52 53 51 51 50 50 52 52 51 49 48 48 44 32 24 16 2 349 338 328 320 316 313 307 303 303 304 305 307 308 307 304 302 301 298 295 290 284 280 278 272 268 269 271 273 274 275 276 277 277 275 273 271 269 267 264 262 261 262 264 266 268 267 263 259 254 250 247 246 244 240 238 239 240 241 240 239 242 248 247 242 241 241 236
42 46 46 44 44 46 48 49 50 49 48 47 48 45 40 39 37 30 22 15 2 351 344 339 332 323 320 323 330 338 339 334 325 316 310 306 303 299 295 290 288 282 276 274 276 277 279 280 280 279 276 273 270 268 268 267 265 263 262 262 264 265 266 265 261 257 253 248 244 244 244 241 238 238 239 238 239 241 243 246 246 242 239 237 234
40 42 41 38 36 37 41 44 45 45 44 42 42 39 35 34 33 29 26 23 17 10 2 357 352 345 338 337 342 349 352 351 349 344 335 323 313 307 302 298 295 291 286 283 283 283 284 285 285 282 279 275 272 271 270 268 267 266 266 265 265 265 264 264 261 255 249 245 243 243 244 244 243 244 245 243 242 240 238 237 238 236 234 233 233
41 39 38 35 32 29 30 33 35 37 39 38 39 38 34 30 29 27 26 24 21 15 9 4 359 354 348 343 343 347 352 356 1 3 357 348 336 324 315 308 302 296 292 290 289 290 289 288 286 284 282 281 277 274 272 270 268 267 266 264 263 261 259 257 254 249 245 244 245 245 248 250 251 250 248 243 238 236 236 234 232 229 227 226 226
43 38 36 34 32 28 24 23 24 27 29 30 32 33 31 28 27 25 24 22 18 14 8 2 358 352 345 340 340 342 347 353 359 359 355 351 346 337 325 316 311 307 303 301 301 300 297 295 291 288 286 285 281 277 275 273 270 267 264 262 261 261 260 257 252 248 245 244 244 247 251 255 256 251 244 239 236 236 234 230 224 221 219 218 220
45 40 36 35 34 31 27 23 19 19 20 21 22 22 21 21 22 25 25 20 13 8 0 352 350 346 338 335 336 336 339 347 351 350 347 345 343 337 328 319 314 310 308 308 308 306 302 299 295 292 289 287 285 283 280 277 274 272 268 264 261 259 259 260 256 252 250 249 248 249 251 255 256 251 243 237 233 229 225 220 217 216 213 211 212
39 36 35 34 32 30 29 26 21 18 15 15 16 16 16 16 15 20 28 26 15 2 348 341 342 339 330 330 332 328 327 335 342 343 342 341 338 334 329 324 318 313 310 309 307 303 300 296 293 289 287 286 284 283 281 279 277 275 272 269 266 261 256 253 251 249 250 250 250 251 253 255 253 245 236 229 225 222 218 215 213 214 212 209 211
33 29 27 26 23 23 24 22 19 16 12 8 6 6 11 15 16 18 22 19 11 1 344 334 337 336 327 327 330 321 317 324 332 336 336 336 335 331 327 324 321 318 316 313 304 297 293 290 287 285 283 282 281 280 280 280 277 275 273 270 268 264 260 255 252 251 251 250 250 251 251 248 242 234 226 222 220 218 217 215 215 214 209 206 210
32 24 20 18 15 15 16 13 11 10 7 3 0 357 357 1 7 13 9 360 360 2 355 344 346 345 334 329 328 322 319 322 326 328 329 328 328 326 323 321 320 318 316 309 298 292 289 287 286 286 284 281 280 279 281 281 278 277 278 276 271 267 263 260 259 258 256 254 252 250 245 239 235 231 226 221 218 215 213 213 214 213 210 209 213
33 24 19 16 13 11 9 6 4 3 0 359 359 356 352 349 350 350 346 342 347 355 3 2 350 337 329 325 322 319 319 322 324 325 325 323 321 319 317 315 315 316 315 301 285 281 282 282 283 286 287 284 283 283 283 281 278 277 277 276 274 270 265 263 263 261 258 255 253 249 244 240 238 235 229 223 218 212 208 206 207 209 210 213 217
32 23 17 11 7 4 1 358 357 356 354 352 351 351 348 343 337 331 328 329 335 342 348 341 330 323 321 320 317 316 317 321 325 326 325 320 317 316 313 309 308 310 309 292 273 272 274 275 275 279 281 282 283 285 284 281 279 277 274 272 272 271 269 269 268 262 257 256 254 251 248 245 241 237 231 225 219 212 207 205 206 207 209 212 215
25 16 10 4 357 353 350 348 347 346 345 344 343 341 339 335 329 323 322 323 326 327 322 320 322 323 321 318 317 318 319 320 323 325 324 320 316 314 310 306 303 303 300 285 270 267 269 270 272 275 278 279 280 281 282 280 279 277 273 271 271 271 272 271 268 262 258 257 255 253 252 249 243 236 229 223 218 216 214 211 209 209 210 212 213
11 4 1 356 348 343 341 339 338 336 334 334 333 330 327 325 321 316 313 313 313 313 313 317 321 323 322 321 323 325 323 319 318 320 322 321 316 312 309 305 302 300 298 290 280 274 271 270 272 274 276 277 277 276 276 277 276 274 272 272 271 271 271 268 265 263 261 258 256 255 254 252 246 238 231 224 218 215 214 212 211 211 213 215 216
358 351 348 345 340 336 334 332 331 328 325 323 321 319 316 314 311 307 303 300 300 302 306 312 317 320 321 322 323 322 321 318 316 316 318 320 316 309 304 299 296 295 294 292 289 286 282 278 277 278 278 278 278 278 276 275 275 273 271 270 269 268 267 265 263 262 261 259 258 257 255 252 248 241 235 230 225 220 216 213 212 212 213 214 214
341 335 333 332 331 330 328 327 325 322 320 318 315 313 311 307 304 301 298 295 294 297 302 309 316 320 322 323 323 321 319 318 317 316 316 319 316 305 297 292 290 288 287 288 288 287 285 283 282 282 282 280 280 280 279 277 276 275 273 271 268 265 265 263 262 261 259 258 258 258 255 253 249 242 235 232 230 226 222 217 214 213 212 209 205
325 322 320 321 323 326 325 324 323 322 320 319 318 316 313 309 306 304 300 298 298 299 303 309 314 317 319 321 323 323 321 320 321 320 319 320 316 308 300 295 290 286 284 285 285 284 283 283 283 282 282 281 280 279 278 277 275 274 272 270 268 266 264 263 261 258 256 255 256 256 255 253 250 243 234 231 229 227 224 220 216 212 207 203 198
326 324 319 316 320 324 323 321 321 322 322 321 320 319 316 313 312 311 310 310 309 308 310 312 314 316 319 322 325 327 325 324 324 323 321 319 315 310 305 299 293 288 287 286 285 283 281 281 282 282 282 281 280 278 276 275 274 273 271 269 267 265 262 259 257 255 252 250 250 251 250 249 248 244 237 232 231 228 225 220 216 211 206 202 200
336 333 326 318 318 322 321 318 317 319 321 320 319 318 315 314 315 316 317 316 315 314 317 318 317 319 321 323 326 327 324 320 319 318 316 315 314 311 308 303 297 295 293 291 289 287 284 283 283 283 282 282 281 280 278 276 274 273 271 268 265 263 260 256 253 251 249 247 247 246 245 244 243 240 235 232 231 229 225 221 217 214 211 208 203
347 339 331 326 325 324 322 319 318 319 319 317 316 315 314 313 316 317 316 315 314 315 317 316 315 318 320 321 322 323 319 314 314 315 314 313 312 311 309 306 303 301 300 298 297 295 292 290 288 286 285 284 283 282 281 279 276 273 271 267 265 264 262 259 254 250 247 245 244 242 242 240 237 234 231 230 229 228 224 220 217 213 211 209 203
354 344 338 336 336 334 332 329 327 327 326 324 322 321 319 318 317 316 313 313 314 314 313 312 313 317 319 319 319 318 314 310 310 311 311 311 311 309 307 306 304 302 301 299 299 298 295 293 291 290 288 287 286 284 282 279 277 274 271 268 266 264 262 261 258 253 249 246 242 241 239 236 233 231 229 228 225 222 219 216 212 208 206 202 197
353 348 344 340 340 340 338 336 336 336 336 335 333 330 325 321 319 317 315 314 314 314 314 315 318 321 322 323 323 320 315 312 312 312 311 311 311 309 307 305 304 302 301 300 298 297 294 292 290 289 288 287 287 286 283 280 278 275 272 269 267 265 264 263 260 256 252 247 244 242 239 234 230 228 227 225 222 217 214 211 206 202 200 196 192
357 354 350 345 346 346 343 343 344 343 341 338 335 334 333 330 327 326 324 321 322 324 324 323 325 327 328 328 328 325 320 317 316 314 312 310 309 308 307 306 305 303 301 299 298 297 293 290 289 289 288 287 286 285 284 283 280 277 273 270 268 266 264 263 261 258 254 250 247 245 240 235 231 227 225 222 218 213 210 206 201 198 195 191 187
5 3 357 353 351 348 346 349 348 343 342 341 338 338 339 337 333 333 332 331 330 330 329 328 328 328 327 326 325 324 321 318 316 314 312 312 313 313 312 310 308 306 304 303 302 301 297 293 290 289 287 286 286 285 285 285 284 281 280 277 275 273 271 268 266 263 258 252 248 245 241 237 233 229 225 221 216 212 209 205 200 196 193 189 187
13 10 4 0 357 351 348 349 347 345 344 342 337 335 334 332 330 332 332 331 330 329 329 329 329 327 326 324 323 322 320 317 316 315 314 314 314 313 311 309 309 309 309 308 306 304 300 295 292 289 287 286 286 286 285 285 284 283 282 281 279 277 275 272 270 268 263 257 250 244 241 238 234 230 226 222 216 212 210 206 201 197 194 191 189
16 12 5 359 353 348 346 344 342 342 342 338 334 333 333 331 333 335 334 333 334 333 332 331 329 328 328 326 324 323 323 321 320 319 317 316 315 314 313 312 311 310 309 306 303 299 297 296 296 296 296 294 293 292 290 289 288 286 283 281 279 276 275 274 272 269 266 262 255 247 242 239 234 230 226 220 215 212 209 206 203 200 196 192 188
23 16 8 358 348 344 345 343 342 343 344 343 341 341 340 340 342 342 340 339 340 338 335 334 333 333 333 332 330 329 329 327 326 325 324 323 322 321 319 318 316 313 311 310 308 306 305 305 305 304 301 298 296 295 293 292 291 289 287 285 283 281 280 280 277 273 269 265 258 250 244 239 234 229 223 217 212 210 207 204 202 199 195 192 187
39 28 18 11 4 359 355 354 353 351 350 347 345 343 344 345 345 343 341 341 341 339 338 339 339 338 338 336 335 334 332 330 329 328 327 327 327 326 324 323 321 318 316 314 312 311 310 309 306 303 301 299 298 297 296 295 293 292 290 289 287 286 285 283 281 278 275 270 262 253 245 239 234 229 222 216 212 208 205 201 198 194 190 187 183
47 41 35 29 20 13 8 8 7 2 357 354 351 349 348 347 346 345 344 344 343 342 343 343 341 340 338 337 336 334 333 331 330 329 329 329 330 329 329 328 326 324 321 319 317 315 313 310 307 305 303 302 300 299 298 297 295 293 292 291 290 289 288 286 284 281 278 273 265 255 245 238 232 227 221 215 210 205 201 197 192 188 184 181 178
46 43 40 35 27 21 17 15 12 8 4 2 359 355 352 349 347 347 347 346 345 344 344 343 342 342 341 340 339 336 334 333 332 331 331 332 332 331 332 331 329 327 325 324 322 320 318 315 312 310 308 306 304 303 301 300 298 297 296 296 295 294 292 290 287 283 279 275 268 257 246 237 230 223 216 210 205 201 196 192 186 182 180 177 174